sat.trackr.live / text

‹ back to catalog

ONEWEB-0318

NORAD 49104 · 2021-075AF

PAYLOAD ACTIVE UNKNOWN

§ Identity

Operator
Country
UK
Launch date
2021-08-21
Launch site
TYMSC
Launch vehicle
Mass (kg)
RCS (m²)

Purposes: comms

External: N2YO · Heavens-Above · Gunter

§ Orbital elements

Epoch: 2026-09-19T20:23:03.800256Z

Period
109.20 min
Inclination
87.9163°
Eccentricity
0.0002059
Mean motion
13.18688706 rev/d
Perigee alt
1,188.2 km
Apogee alt
1,191.3 km
Semi-major
7,567.9 km
B*
1.2446e-4
RAAN
316.6504°
Arg perigee
102.0178°
Mean anomaly
258.1185°
Rev number
24,964

§ Raw data

ONEWEB-03181 49104U 21075AF  26262.84934954  .00000062  00000+0  12446-3 0  99942 49104  87.9163 316.6504 0002059 102.0178 258.1185 13.18688706249647

JSON: /api/v1/satellites/49104 · /tle

For live sub-satellite position, see the globe view (requires WebGL).

§ Visibility from observer

Set your observer location to see the next 7 days of passes ≥ 10°. The values pass through the URL so the page stays shareable.

No JS? Fill the form by hand. The geolocation button needs JavaScript.